星链-5078 (STARLINK-5078 )

导读 | 豆包AI

STARLINK-5078是美国太空探索技术公司发射的Starlink(星链)互联网卫星项目的一颗卫星,于北京时间2022年12月28日8点成功发射入轨,属于星链低轨宽带互联网星座组网卫星,为全球提供高速互联网接入服务,进一步扩大了星链星座的覆盖范围与服务能力,推进星链低轨星座的部署进程。

基本信息
目录编号:
54857
目录名称:
STARLINK-5078
国际标识:
2022-177AP
轨道中心:
EARTH
卫星名称:
星链-5078
卫星全名:
星链-5078 (STARLINK-5078 )
卫星状态:
在轨 (已飞行1173 天)
发射日期:
2022-12-28 UTC
国别 :
美国 (US)
星等 :
--
轨道信息
数据来源 国际轨道数据
星历时间: 2026-03-15T06:00:02+0800
13小时前
查看轨道信息
半长轴: 6897.532km
偏心率: 0.0001089
轨道倾角: 43.000°
近地点辐角 292.106°
升交点赤经 91.514°
平近点角 167.269°
近地点: 518.643km
远地点: 520.147km
周期: 95.017分钟
每日圈数: 15.155219
详细信息
固有亮度:
5
最大亮度:
2.5
卫星平台:
Starlink v1.5
覆盖范围:
全球
运营商:
太空探索技术公司
运营商所在国:
美国
制造商(研发单位):
太空探索技术公司
制造商所在国:
美国
使用方式:
暂无
卫星简介
星链(Starlink)计划是由太空探索技术公司(SpaceX)提出的一个巨型低轨卫星互联网星座项目,计划在2019年至2024年间在太空搭建由约1.2万颗卫星组成的“星链”网络,其中1584颗将部署在地球上空550千米处的近地轨道,并从2020年开始工作。该卫星仍在工作。
2D轨道图
3D轨道图
轨道高度分析图
轨道倾角分析图
轨道综合分析图
查看轨道综合分析图